• en Suisse
  • Liste des pays
  • À 7 jours
  • Température de l'eau
  • Carte satellitaire
  • Carte météo
  • Widgets météo
  • user-avatar
    Se connecter

    Météo par heure à Krush

    Ce jour, 20 Juillet, Vendredi

    Heure Température Précipitation Vent Pression Humidité
    00:00 +17°C° 0 mm 3 m/s 744 mmHg 95%
    01:00 +17°C° 0 mm 3 m/s 744 mmHg 95%
    02:00 +17°C° 0 mm 3 m/s 745 mmHg 96%
    03:00 +16°C° 0 mm 3 m/s 745 mmHg 96%
    04:00 +16°C° 0 mm 3 m/s 745 mmHg 96%
    05:00 +17°C° 0 mm 4 m/s 745 mmHg 93%
    06:00 +18°C° 0 mm 4 m/s 745 mmHg 90%
    07:00 +19°C° 0 mm 4 m/s 745 mmHg 87%
    08:00 +21°C° 0 mm 4 m/s 745 mmHg 81%
    09:00 +22°C° 0 mm 5 m/s 745 mmHg 75%
    10:00 +25°C° 0 mm 5 m/s 746 mmHg 69%
    11:00 +25°C° 0,2 mm 5 m/s 746 mmHg 68%
    12:00 +26°C° 0,2 mm 5 m/s 746 mmHg 66%
    13:00 +26°C° 0,2 mm 5 m/s 746 mmHg 64%
    14:00 +26°C° 0,4 mm 5 m/s 746 mmHg 67%
    15:00 +25°C° 0,4 mm 5 m/s 746 mmHg 71%
    16:00 +25°C° 0,4 mm 5 m/s 746 mmHg 74%
    17:00 +23°C° 0,1 mm 5 m/s 746 mmHg 76%
    18:00 +22°C° 0,1 mm 5 m/s 746 mmHg 78%
    19:00 +21°C° 0,1 mm 4 m/s 746 mmHg 80%
    20:00 +21°C° 0 mm 4 m/s 746 mmHg 82%
    21:00 +20°C° 0 mm 4 m/s 747 mmHg 84%
    22:00 +19°C° 0 mm 4 m/s 747 mmHg 86%
    23:00 +18°C° 0 mm 4 m/s 747 mmHg 86%

    Demain, 21 Juillet, Samedi

    Heure Température Précipitation Vent Pression Humidité
    00:00 +18°C° 0 mm 4 m/s 747 mmHg 87%
    01:00 +18°C° 0 mm 4 m/s 747 mmHg 87%
    02:00 +17°C° 0 mm 4 m/s 747 mmHg 87%
    03:00 +17°C° 0 mm 4 m/s 747 mmHg 87%
    04:00 +15°C° 0 mm 4 m/s 748 mmHg 87%
    05:00 +17°C° 0 mm 4 m/s 748 mmHg 84%
    06:00 +17°C° 0 mm 4 m/s 748 mmHg 81%
    07:00 +17°C° 0 mm 5 m/s 748 mmHg 79%
    08:00 +19°C° 0 mm 5 m/s 748 mmHg 72%
    09:00 +21°C° 0 mm 5 m/s 748 mmHg 65%
    10:00 +22°C° 0 mm 6 m/s 749 mmHg 58%
    11:00 +23°C° 0 mm 6 m/s 749 mmHg 56%
    12:00 +24°C° 0 mm 6 m/s 749 mmHg 53%
    13:00 +24°C° 0 mm 6 m/s 748 mmHg 51%
    14:00 +25°C° 0 mm 5 m/s 748 mmHg 51%
    15:00 +25°C° 0 mm 5 m/s 749 mmHg 51%
    16:00 +25°C° 0 mm 5 m/s 749 mmHg 51%
    17:00 +23°C° 0 mm 4 m/s 749 mmHg 55%
    18:00 +22°C° 0 mm 4 m/s 749 mmHg 60%
    19:00 +21°C° 0 mm 4 m/s 749 mmHg 64%
    20:00 +19°C° 0 mm 3 m/s 749 mmHg 66%
    21:00 +18°C° 0 mm 3 m/s 750 mmHg 67%
    22:00 +16°C° 0 mm 3 m/s 750 mmHg 68%
    23:00 +14°C° 0 mm 3 m/s 750 mmHg 70%

    Après-demain, 22 Juillet, Dimanche

    Heure Température Précipitation Vent Pression Humidité
    00:00 +13°C° 0 mm 3 m/s 750 mmHg 71%
    01:00 +13°C° 0 mm 3 m/s 750 mmHg 73%
    02:00 +12°C° 0 mm 3 m/s 750 mmHg 73%
    03:00 +12°C° 0 mm 3 m/s 750 mmHg 73%
    04:00 +11°C° 0 mm 3 m/s 751 mmHg 73%
    05:00 +12°C° 0 mm 3 m/s 751 mmHg 71%
    06:00 +13°C° 0 mm 4 m/s 751 mmHg 69%
    07:00 +14°C° 0 mm 4 m/s 751 mmHg 67%
    08:00 +17°C° 0 mm 4 m/s 751 mmHg 61%
    09:00 +19°C° 0 mm 5 m/s 751 mmHg 55%
    10:00 +20°C° 0 mm 5 m/s 751 mmHg 49%
    11:00 +21°C° 0 mm 5 m/s 751 mmHg 47%
    12:00 +22°C° 0 mm 5 m/s 751 mmHg 45%
    13:00 +22°C° 0 mm 5 m/s 751 mmHg 43%
    14:00 +22°C° 0 mm 5 m/s 751 mmHg 44%
    15:00 +23°C° 0 mm 4 m/s 751 mmHg 44%
    16:00 +23°C° 0 mm 4 m/s 750 mmHg 45%
    17:00 +22°C° 0 mm 4 m/s 750 mmHg 51%
    18:00 +21°C° 0 mm 3 m/s 751 mmHg 57%
    19:00 +19°C° 0 mm 3 m/s 751 mmHg 63%
    20:00 +18°C° 0 mm 3 m/s 751 mmHg 66%
    21:00 +16°C° 0 mm 3 m/s 751 mmHg 70%
    22:00 +13°C° 0 mm 3 m/s 751 mmHg 74%
    23:00 +13°C° 0 mm 2 m/s 752 mmHg 76%

    23 Juillet, Lundi

    Heure Température Précipitation Vent Pression Humidité
    00:00 +12°C° 0 mm 2 m/s 752 mmHg 79%
    01:00 +10°C° 0 mm 2 m/s 752 mmHg 82%
    02:00 +10°C° 0 mm 2 m/s 752 mmHg 84%
    03:00 +9°C° 0 mm 2 m/s 752 mmHg 85%
    04:00 +10°C° 0 mm 1 m/s 753 mmHg 87%
    05:00 +12°C° 0 mm 2 m/s 753 mmHg 81%
    06:00 +13°C° 0 mm 2 m/s 753 mmHg 75%
    07:00 +15°C° 0 mm 2 m/s 753 mmHg 69%
    08:00 +17°C° 0 mm 3 m/s 753 mmHg 63%
    09:00 +19°C° 0 mm 3 m/s 753 mmHg 56%
    10:00 +20°C° 0 mm 4 m/s 753 mmHg 49%
    11:00 +21°C° 0 mm 3 m/s 752 mmHg 47%
    12:00 +22°C° 0 mm 3 m/s 752 mmHg 45%
    13:00 +24°C° 0 mm 3 m/s 752 mmHg 44%
    14:00 +24°C° 0 mm 3 m/s 752 mmHg 44%
    15:00 +25°C° 0 mm 3 m/s 752 mmHg 44%
    16:00 +25°C° 0 mm 2 m/s 751 mmHg 44%
    17:00 +24°C° 0 mm 2 m/s 751 mmHg 51%
    18:00 +23°C° 0 mm 1 m/s 751 mmHg 58%
    19:00 +22°C° 0 mm 1 m/s 751 mmHg 65%
    20:00 +20°C° 0 mm 1 m/s 751 mmHg 68%
    21:00 +19°C° 0 mm 1 m/s 752 mmHg 72%
    22:00 +16°C° 0 mm 1 m/s 752 mmHg 75%
    23:00 +15°C° 0 mm 1 m/s 752 mmHg 77%

    24 Juillet, Mardi

    Heure Température Précipitation Vent Pression Humidité
    00:00 +14°C° 0 mm 0 m/s 752 mmHg 78%
    01:00 +13°C° 0 mm 0 m/s 752 mmHg 80%
    02:00 +13°C° 0 mm 0 m/s 752 mmHg 80%
    03:00 +13°C° 0 mm 0 m/s 752 mmHg 81%
    04:00 +13°C° 0 mm 0 m/s 752 mmHg 82%
    05:00 +15°C° 0 mm 0 m/s 752 mmHg 78%
    06:00 +17°C° 0 mm 0 m/s 753 mmHg 73%
    07:00 +18°C° 0 mm 0 m/s 753 mmHg 68%
    08:00 +22°C° 0 mm 1 m/s 753 mmHg 63%
    09:00 +25°C° 0 mm 1 m/s 753 mmHg 58%
    10:00 +27°C° 0 mm 1 m/s 752 mmHg 53%
    11:00 +27°C° 0 mm 1 m/s 752 mmHg 50%
    12:00 +28°C° 0 mm 2 m/s 752 mmHg 47%
    13:00 +29°C° 0 mm 2 m/s 752 mmHg 44%
    14:00 +29°C° 0 mm 2 m/s 752 mmHg 45%
    15:00 +29°C° 0 mm 2 m/s 752 mmHg 46%
    16:00 +29°C° 0 mm 3 m/s 751 mmHg 47%
    17:00 +28°C° 0 mm 2 m/s 751 mmHg 54%
    18:00 +27°C° 0 mm 2 m/s 751 mmHg 62%
    19:00 +26°C° 0 mm 2 m/s 751 mmHg 69%
    20:00 +24°C° 0 mm 1 m/s 751 mmHg 73%
    21:00 +22°C° 0 mm 1 m/s 751 mmHg 77%
    22:00 +20°C° 0 mm 1 m/s 752 mmHg 80%
    23:00 +20°C° 0 mm 1 m/s 752 mmHg 82%

    25 Juillet, Mercredi

    Heure Température Précipitation Vent Pression Humidité
    00:00 +19°C° 0 mm 1 m/s 752 mmHg 84%
    01:00 +18°C° 0 mm 1 m/s 752 mmHg 86%
    02:00 +18°C° 0 mm 1 m/s 752 mmHg 87%
    03:00 +16°C° 0 mm 1 m/s 752 mmHg 88%
    04:00 +16°C° 0 mm 1 m/s 752 mmHg 89%
    05:00 +19°C° 0 mm 1 m/s 752 mmHg 84%
    06:00 +21°C° 0 mm 1 m/s 752 mmHg 78%
    07:00 +22°C° 0 mm 1 m/s 752 mmHg 73%
    08:00 +24°C° 0 mm 1 m/s 752 mmHg 66%
    09:00 +26°C° 0 mm 2 m/s 752 mmHg 58%
    10:00 +28°C° 0 mm 2 m/s 752 mmHg 51%
    11:00 +29°C° 0 mm 2 m/s 752 mmHg 47%
    12:00 +30°C° 0 mm 2 m/s 752 mmHg 43%
    13:00 +31°C° 0 mm 3 m/s 752 mmHg 39%
    14:00 +31°C° 0 mm 3 m/s 752 mmHg 40%
    15:00 +31°C° 0 mm 3 m/s 752 mmHg 42%
    16:00 +31°C° 0 mm 3 m/s 752 mmHg 43%
    17:00 +29°C° 0 mm 2 m/s 752 mmHg 50%
    18:00 +28°C° 0 mm 2 m/s 752 mmHg 57%
    19:00 +27°C° 0 mm 1 m/s 752 mmHg 65%
    20:00 +25°C° 0 mm 1 m/s 752 mmHg 68%
    21:00 +23°C° 0 mm 1 m/s 752 mmHg 71%
    22:00 +21°C° 0 mm 1 m/s 752 mmHg 75%
    23:00 +21°C° 0 mm 1 m/s 752 mmHg 76%
    Voir plus